owner,sensor,date,latitude,longitude,sea_surface_height_above_sea_level,qcFlag 
COMPS,ioos:station:USF.COMPS:FHP:1,2019-04-01T00:00:00Z,28.1530,-82.8010,-9.683,1111122 
COMPS,ioos:station:USF.COMPS:FHP:1,2019-04-01T00:06:00Z,28.1530,-82.8010,-9.663,1111122 
COMPS,ioos:station:USF.COMPS:FHP:1,2019-04-01T00:12:00Z,28.1530,-82.8010,-9.647,1111122 
COMPS,ioos:station:USF.COMPS:FHP:1,2019-04-01T00:18:00Z,28.1530,-82.8010,-9.63,1111122 
COMPS,ioos:station:USF.COMPS:FHP:1,2019-04-01T00:24:00Z,28.1530,-82.8010,-9.621,1111122 
COMPS,ioos:station:USF.COMPS:FHP:1,2019-04-01T00:30:00Z,28.1530,-82.8010,-9.612,1111122 
COMPS,ioos:station:USF.COMPS:FHP:1,2019-04-01T00:36:00Z,28.1530,-82.8010,-9.606,1111122 
COMPS,ioos:station:USF.COMPS:FHP:1,2019-04-01T00:42:00Z,28.1530,-82.8010,-9.595,1111122 
COMPS,ioos:station:USF.COMPS:FHP:1,2019-04-01T00:48:00Z,28.1530,-82.8010,-9.59,1111122 
COMPS,ioos:station:USF.COMPS:FHP:1,2019-04-01T00:54:00Z,28.1530,-82.8010,-9.586,1111122 
COMPS,ioos:station:USF.COMPS:FHP:1,2019-04-01T01:00:00Z,28.1530,-82.8010,-9.581,1111122 
COMPS,ioos:station:USF.COMPS:FHP:1,2019-04-01T01:06:00Z,28.1530,-82.8010,-9.577,1111122 
COMPS,ioos:station:USF.COMPS:FHP:1,2019-04-01T01:12:00Z,28.1530,-82.8010,-9.57,1111122 
COMPS,ioos:station:USF.COMPS:FHP:1,2019-04-01T01:18:00Z,28.1530,-82.8010,-9.558,1111122 
COMPS,ioos:station:USF.COMPS:FHP:1,2019-04-01T01:24:00Z,28.1530,-82.8010,-9.556,1111122 
COMPS,ioos:station:USF.COMPS:FHP:1,2019-04-01T01:30:00Z,28.1530,-82.8010,-9.526,1111122 
COMPS,ioos:station:USF.COMPS:FHP:1,2019-04-01T01:36:00Z,28.1530,-82.8010,-9.519,1111122 
COMPS,ioos:station:USF.COMPS:FHP:1,2019-04-01T01:42:00Z,28.1530,-82.8010,-9.506,1111122 
COMPS,ioos:station:USF.COMPS:FHP:1,2019-04-01T01:48:00Z,28.1530,-82.8010,-9.491,1111122 
COMPS,ioos:station:USF.COMPS:FHP:1,2019-04-01T01:54:00Z,28.1530,-82.8010,-9.487,1111122 
COMPS,ioos:station:USF.COMPS:FHP:1,2019-04-01T02:00:00Z,28.1530,-82.8010,-9.496,1111122 
COMPS,ioos:station:USF.COMPS:FHP:1,2019-04-01T02:06:00Z,28.1530,-82.8010,-9.515,1111122 
COMPS,ioos:station:USF.COMPS:FHP:1,2019-04-01T02:12:00Z,28.1530,-82.8010,-9.552,1111122 
COMPS,ioos:station:USF.COMPS:FHP:1,2019-04-01T02:18:00Z,28.1530,-82.8010,-9.577,1111122 
COMPS,ioos:station:USF.COMPS:FHP:1,2019-04-01T02:24:00Z,28.1530,-82.8010,-9.59,1111122 
COMPS,ioos:station:USF.COMPS:FHP:1,2019-04-01T02:30:00Z,28.1530,-82.8010,-9.601,1111122 
COMPS,ioos:station:USF.COMPS:FHP:1,2019-04-01T02:36:00Z,28.1530,-82.8010,-9.598,1111122 
COMPS,ioos:station:USF.COMPS:FHP:1,2019-04-01T02:42:00Z,28.1530,-82.8010,-9.594,1111122 
COMPS,ioos:station:USF.COMPS:FHP:1,2019-04-01T02:48:00Z,28.1530,-82.8010,-9.607,1111122 
COMPS,ioos:station:USF.COMPS:FHP:1,2019-04-01T02:54:00Z,28.1530,-82.8010,-9.629,1111122 
COMPS,ioos:station:USF.COMPS:FHP:1,2019-04-01T03:00:00Z,28.1530,-82.8010,-9.634,1111122 
COMPS,ioos:station:USF.COMPS:FHP:1,2019-04-01T03:06:00Z,28.1530,-82.8010,-9.66,1111122 
COMPS,ioos:station:USF.COMPS:FHP:1,2019-04-01T03:12:00Z,28.1530,-82.8010,-9.67,1111122 
COMPS,ioos:station:USF.COMPS:FHP:1,2019-04-01T03:18:00Z,28.1530,-82.8010,-9.668,1111122 
COMPS,ioos:station:USF.COMPS:FHP:1,2019-04-01T03:24:00Z,28.1530,-82.8010,-9.686,1111122 
COMPS,ioos:station:USF.COMPS:FHP:1,2019-04-01T03:30:00Z,28.1530,-82.8010,-9.675,1111122 
COMPS,ioos:station:USF.COMPS:FHP:1,2019-04-01T03:36:00Z,28.1530,-82.8010,-9.679,1111122 
COMPS,ioos:station:USF.COMPS:FHP:1,2019-04-01T03:42:00Z,28.1530,-82.8010,-9.683,1111122 
COMPS,ioos:station:USF.COMPS:FHP:1,2019-04-01T03:48:00Z,28.1530,-82.8010,-9.702,1111122 
COMPS,ioos:station:USF.COMPS:FHP:1,2019-04-01T03:54:00Z,28.1530,-82.8010,-9.693,1111122 
COMPS,ioos:station:USF.COMPS:FHP:1,2019-04-01T04:00:00Z,28.1530,-82.8010,-9.693,1111122 
COMPS,ioos:station:USF.COMPS:FHP:1,2019-04-01T04:06:00Z,28.1530,-82.8010,-9.7,1111122 
COMPS,ioos:station:USF.COMPS:FHP:1,2019-04-01T04:12:00Z,28.1530,-82.8010,-9.68,1111122 
COMPS,ioos:station:USF.COMPS:FHP:1,2019-04-01T04:18:00Z,28.1530,-82.8010,-9.692,1111122 
COMPS,ioos:station:USF.COMPS:FHP:1,2019-04-01T04:24:00Z,28.1530,-82.8010,-9.683,1111122 
COMPS,ioos:station:USF.COMPS:FHP:1,2019-04-01T04:30:00Z,28.1530,-82.8010,-9.715,1111122 
COMPS,ioos:station:USF.COMPS:FHP:1,2019-04-01T04:36:00Z,28.1530,-82.8010,-9.741,1111122 
COMPS,ioos:station:USF.COMPS:FHP:1,2019-04-01T04:42:00Z,28.1530,-82.8010,-9.741,1111122 
COMPS,ioos:station:USF.COMPS:FHP:1,2019-04-01T04:48:00Z,28.1530,-82.8010,-9.738,1111122 
COMPS,ioos:station:USF.COMPS:FHP:1,2019-04-01T04:54:00Z,28.1530,-82.8010,-9.74,1111122 
COMPS,ioos:station:USF.COMPS:FHP:1,2019-04-01T05:00:00Z,28.1530,-82.8010,-9.746,1111122 
COMPS,ioos:station:USF.COMPS:FHP:1,2019-04-01T05:06:00Z,28.1530,-82.8010,-9.764,1111122 
COMPS,ioos:station:USF.COMPS:FHP:1,2019-04-01T05:12:00Z,28.1530,-82.8010,-9.778,1111122 
COMPS,ioos:station:USF.COMPS:FHP:1,2019-04-01T05:18:00Z,28.1530,-82.8010,-9.799,1111122 
COMPS,ioos:station:USF.COMPS:FHP:1,2019-04-01T05:24:00Z,28.1530,-82.8010,-9.819,1111122 
COMPS,ioos:station:USF.COMPS:FHP:1,2019-04-01T05:30:00Z,28.1530,-82.8010,-9.819,1111122 
COMPS,ioos:station:USF.COMPS:FHP:1,2019-04-01T05:36:00Z,28.1530,-82.8010,-9.817,1111122 
COMPS,ioos:station:USF.COMPS:FHP:1,2019-04-01T05:42:00Z,28.1530,-82.8010,-9.835,1111122 
COMPS,ioos:station:USF.COMPS:FHP:1,2019-04-01T05:48:00Z,28.1530,-82.8010,-9.849,1111122 
COMPS,ioos:station:USF.COMPS:FHP:1,2019-04-01T05:54:00Z,28.1530,-82.8010,-9.873,1111122 
COMPS,ioos:station:USF.COMPS:FHP:1,2019-04-01T06:00:00Z,28.1530,-82.8010,-9.894,1111122 
COMPS,ioos:station:USF.COMPS:FHP:1,2019-04-01T06:06:00Z,28.1530,-82.8010,-9.92,1111122 
COMPS,ioos:station:USF.COMPS:FHP:1,2019-04-01T06:12:00Z,28.1530,-82.8010,-9.934,1111122 
COMPS,ioos:station:USF.COMPS:FHP:1,2019-04-01T06:18:00Z,28.1530,-82.8010,-9.953,1111122 
COMPS,ioos:station:USF.COMPS:FHP:1,2019-04-01T06:24:00Z,28.1530,-82.8010,-9.975,1111122 
COMPS,ioos:station:USF.COMPS:FHP:1,2019-04-01T13:12:00Z,28.1530,-82.8010,-9.995,1111122 
COMPS,ioos:station:USF.COMPS:FHP:1,2019-04-01T13:18:00Z,28.1530,-82.8010,-9.983,1111122 
COMPS,ioos:station:USF.COMPS:FHP:1,2019-04-01T13:24:00Z,28.1530,-82.8010,-9.947,1111122 
COMPS,ioos:station:USF.COMPS:FHP:1,2019-04-01T13:30:00Z,28.1530,-82.8010,-9.932,1111122 
COMPS,ioos:station:USF.COMPS:FHP:1,2019-04-01T13:36:00Z,28.1530,-82.8010,-9.919,1111122 
COMPS,ioos:station:USF.COMPS:FHP:1,2019-04-01T13:42:00Z,28.1530,-82.8010,-9.912,1111122 
COMPS,ioos:station:USF.COMPS:FHP:1,2019-04-01T13:48:00Z,28.1530,-82.8010,-9.915,1111122 
COMPS,ioos:station:USF.COMPS:FHP:1,2019-04-01T13:54:00Z,28.1530,-82.8010,-9.895,1111122 
COMPS,ioos:station:USF.COMPS:FHP:1,2019-04-01T14:00:00Z,28.1530,-82.8010,-9.875,1111122 
COMPS,ioos:station:USF.COMPS:FHP:1,2019-04-01T14:06:00Z,28.1530,-82.8010,-9.859,1111122 
COMPS,ioos:station:USF.COMPS:FHP:1,2019-04-01T14:12:00Z,28.1530,-82.8010,-9.855,1111122 
COMPS,ioos:station:USF.COMPS:FHP:1,2019-04-01T14:18:00Z,28.1530,-82.8010,-9.871,1111122 
COMPS,ioos:station:USF.COMPS:FHP:1,2019-04-01T14:24:00Z,28.1530,-82.8010,-9.846,1111122 
COMPS,ioos:station:USF.COMPS:FHP:1,2019-04-01T14:30:00Z,28.1530,-82.8010,-9.85,1111122 
COMPS,ioos:station:USF.COMPS:FHP:1,2019-04-01T14:36:00Z,28.1530,-82.8010,-9.856,1111122 
COMPS,ioos:station:USF.COMPS:FHP:1,2019-04-01T14:42:00Z,28.1530,-82.8010,-9.847,1111122 
COMPS,ioos:station:USF.COMPS:FHP:1,2019-04-01T14:48:00Z,28.1530,-82.8010,-9.854,1111122 
COMPS,ioos:station:USF.COMPS:FHP:1,2019-04-01T14:54:00Z,28.1530,-82.8010,-9.853,1111122 
COMPS,ioos:station:USF.COMPS:FHP:1,2019-04-01T15:00:00Z,28.1530,-82.8010,-9.851,1111122 
COMPS,ioos:station:USF.COMPS:FHP:1,2019-04-01T15:06:00Z,28.1530,-82.8010,-9.861,1111122 
COMPS,ioos:station:USF.COMPS:FHP:1,2019-04-01T15:12:00Z,28.1530,-82.8010,-9.848,1111122 
COMPS,ioos:station:USF.COMPS:FHP:1,2019-04-01T15:18:00Z,28.1530,-82.8010,-9.837,1111122 
COMPS,ioos:station:USF.COMPS:FHP:1,2019-04-01T15:24:00Z,28.1530,-82.8010,-9.824,1111122 
COMPS,ioos:station:USF.COMPS:FHP:1,2019-04-01T15:30:00Z,28.1530,-82.8010,-9.792,1111122 
COMPS,ioos:station:USF.COMPS:FHP:1,2019-04-01T15:36:00Z,28.1530,-82.8010,-9.798,1111122 
COMPS,ioos:station:USF.COMPS:FHP:1,2019-04-01T15:42:00Z,28.1530,-82.8010,-9.789,1111122 
COMPS,ioos:station:USF.COMPS:FHP:1,2019-04-01T15:48:00Z,28.1530,-82.8010,-9.779,1111122 
COMPS,ioos:station:USF.COMPS:FHP:1,2019-04-01T15:54:00Z,28.1530,-82.8010,-9.772,1111122 
COMPS,ioos:station:USF.COMPS:FHP:1,2019-04-01T16:00:00Z,28.1530,-82.8010,-9.766,1111122 
COMPS,ioos:station:USF.COMPS:FHP:1,2019-04-01T16:06:00Z,28.1530,-82.8010,-9.773,1111122 
COMPS,ioos:station:USF.COMPS:FHP:1,2019-04-01T16:12:00Z,28.1530,-82.8010,-9.776,1111122 
COMPS,ioos:station:USF.COMPS:FHP:1,2019-04-01T16:18:00Z,28.1530,-82.8010,-9.762,1111122 
COMPS,ioos:station:USF.COMPS:FHP:1,2019-04-01T16:24:00Z,28.1530,-82.8010,-9.758,1111122 
COMPS,ioos:station:USF.COMPS:FHP:1,2019-04-01T16:30:00Z,28.1530,-82.8010,-9.757,1111122 
COMPS,ioos:station:USF.COMPS:FHP:1,2019-04-01T16:36:00Z,28.1530,-82.8010,-9.773,1111122 
COMPS,ioos:station:USF.COMPS:FHP:1,2019-04-01T16:42:00Z,28.1530,-82.8010,-9.75,1111122 
COMPS,ioos:station:USF.COMPS:FHP:1,2019-04-01T16:48:00Z,28.1530,-82.8010,-9.745,1111122 
COMPS,ioos:station:USF.COMPS:FHP:1,2019-04-01T16:54:00Z,28.1530,-82.8010,-9.727,1111122 
COMPS,ioos:station:USF.COMPS:FHP:1,2019-04-01T17:00:00Z,28.1530,-82.8010,-9.739,1111122 
COMPS,ioos:station:USF.COMPS:FHP:1,2019-04-01T17:06:00Z,28.1530,-82.8010,-9.74,1111122 
COMPS,ioos:station:USF.COMPS:FHP:1,2019-04-01T17:12:00Z,28.1530,-82.8010,-9.781,1111122 
COMPS,ioos:station:USF.COMPS:FHP:1,2019-04-01T17:18:00Z,28.1530,-82.8010,-9.78,1111122 
COMPS,ioos:station:USF.COMPS:FHP:1,2019-04-01T17:24:00Z,28.1530,-82.8010,-9.793,1111122 
COMPS,ioos:station:USF.COMPS:FHP:1,2019-04-01T17:30:00Z,28.1530,-82.8010,-9.813,1111122 
COMPS,ioos:station:USF.COMPS:FHP:1,2019-04-01T17:36:00Z,28.1530,-82.8010,-9.818,1111122 
COMPS,ioos:station:USF.COMPS:FHP:1,2019-04-01T17:42:00Z,28.1530,-82.8010,-9.847,1111122 
COMPS,ioos:station:USF.COMPS:FHP:1,2019-04-01T17:48:00Z,28.1530,-82.8010,-9.861,1111122 
COMPS,ioos:station:USF.COMPS:FHP:1,2019-04-01T17:54:00Z,28.1530,-82.8010,-9.879,1111122 
COMPS,ioos:station:USF.COMPS:FHP:1,2019-04-01T18:00:00Z,28.1530,-82.8010,-9.874,1111122 
COMPS,ioos:station:USF.COMPS:FHP:1,2019-04-01T18:06:00Z,28.1530,-82.8010,-9.888,1111122 
COMPS,ioos:station:USF.COMPS:FHP:1,2019-04-01T18:12:00Z,28.1530,-82.8010,-9.891,1111122 
COMPS,ioos:station:USF.COMPS:FHP:1,2019-04-01T18:18:00Z,28.1530,-82.8010,-9.916,1111122 
COMPS,ioos:station:USF.COMPS:FHP:1,2019-04-01T18:24:00Z,28.1530,-82.8010,-9.932,1111122 
COMPS,ioos:station:USF.COMPS:FHP:1,2019-04-01T18:30:00Z,28.1530,-82.8010,-9.951,1111122 
COMPS,ioos:station:USF.COMPS:FHP:1,2019-04-01T18:36:00Z,28.1530,-82.8010,-9.958,1111122 
COMPS,ioos:station:USF.COMPS:FHP:1,2019-04-01T18:42:00Z,28.1530,-82.8010,-9.966,1111122 
COMPS,ioos:station:USF.COMPS:FHP:1,2019-04-01T18:48:00Z,28.1530,-82.8010,-9.985,1111122 
COMPS,ioos:station:USF.COMPS:FHP:1,2019-04-01T18:54:00Z,28.1530,-82.8010,-9.992,1111122 
COMPS,ioos:station:USF.COMPS:FHP:1,2019-04-01T21:18:00Z,28.1530,-82.8010,-9.98,1111122 
COMPS,ioos:station:USF.COMPS:FHP:1,2019-04-01T22:06:00Z,28.1530,-82.8010,-9.994,1111122 
COMPS,ioos:station:USF.COMPS:FHP:1,2019-04-01T22:12:00Z,28.1530,-82.8010,-9.984,1111122 
COMPS,ioos:station:USF.COMPS:FHP:1,2019-04-01T22:18:00Z,28.1530,-82.8010,-9.994,1111122 
COMPS,ioos:station:USF.COMPS:FHP:1,2019-04-01T22:24:00Z,28.1530,-82.8010,-9.977,1111122 
COMPS,ioos:station:USF.COMPS:FHP:1,2019-04-01T22:30:00Z,28.1530,-82.8010,-9.973,1111122 
COMPS,ioos:station:USF.COMPS:FHP:1,2019-04-01T22:36:00Z,28.1530,-82.8010,-9.957,1111122 
COMPS,ioos:station:USF.COMPS:FHP:1,2019-04-01T22:42:00Z,28.1530,-82.8010,-9.936,1111122 
COMPS,ioos:station:USF.COMPS:FHP:1,2019-04-01T22:48:00Z,28.1530,-82.8010,-9.922,1111122 
COMPS,ioos:station:USF.COMPS:FHP:1,2019-04-01T22:54:00Z,28.1530,-82.8010,-9.915,1111122 
COMPS,ioos:station:USF.COMPS:FHP:1,2019-04-01T23:00:00Z,28.1530,-82.8010,-9.898,1111122 
COMPS,ioos:station:USF.COMPS:FHP:1,2019-04-01T23:06:00Z,28.1530,-82.8010,-9.898,1111122 
COMPS,ioos:station:USF.COMPS:FHP:1,2019-04-01T23:12:00Z,28.1530,-82.8010,-9.898,1111122 
COMPS,ioos:station:USF.COMPS:FHP:1,2019-04-01T23:18:00Z,28.1530,-82.8010,-9.883,1111122 
COMPS,ioos:station:USF.COMPS:FHP:1,2019-04-01T23:24:00Z,28.1530,-82.8010,-9.888,1111122 
COMPS,ioos:station:USF.COMPS:FHP:1,2019-04-01T23:30:00Z,28.1530,-82.8010,-9.868,1111122 
COMPS,ioos:station:USF.COMPS:FHP:1,2019-04-01T23:36:00Z,28.1530,-82.8010,-9.853,1111122 
COMPS,ioos:station:USF.COMPS:FHP:1,2019-04-01T23:42:00Z,28.1530,-82.8010,-9.839,1111122 
COMPS,ioos:station:USF.COMPS:FHP:1,2019-04-01T23:48:00Z,28.1530,-82.8010,-9.823,1111122 
COMPS,ioos:station:USF.COMPS:FHP:1,2019-04-01T23:54:00Z,28.1530,-82.8010,-9.806,1111122 
COMPS,ioos:station:USF.COMPS:FHP:1,2019-04-02T00:00:00Z,28.1530,-82.8010,-9.788,1111122 
COMPS,ioos:station:USF.COMPS:FHP:1,2019-04-02T00:06:00Z,28.1530,-82.8010,-9.765,1111122 
COMPS,ioos:station:USF.COMPS:FHP:1,2019-04-02T00:12:00Z,28.1530,-82.8010,-9.764,1111122 
COMPS,ioos:station:USF.COMPS:FHP:1,2019-04-02T00:18:00Z,28.1530,-82.8010,-9.752,1111122 
COMPS,ioos:station:USF.COMPS:FHP:1,2019-04-02T00:24:00Z,28.1530,-82.8010,-9.739,1111122 
COMPS,ioos:station:USF.COMPS:FHP:1,2019-04-02T00:30:00Z,28.1530,-82.8010,-9.724,1111122 
COMPS,ioos:station:USF.COMPS:FHP:1,2019-04-02T00:36:00Z,28.1530,-82.8010,-9.711,1111122 
COMPS,ioos:station:USF.COMPS:FHP:1,2019-04-02T00:42:00Z,28.1530,-82.8010,-9.706,1111122 
COMPS,ioos:station:USF.COMPS:FHP:1,2019-04-02T00:48:00Z,28.1530,-82.8010,-9.697,1111122 
COMPS,ioos:station:USF.COMPS:FHP:1,2019-04-02T00:54:00Z,28.1530,-82.8010,-9.679,1111122 
COMPS,ioos:station:USF.COMPS:FHP:1,2019-04-02T01:00:00Z,28.1530,-82.8010,-9.671,1111122 
COMPS,ioos:station:USF.COMPS:FHP:1,2019-04-02T01:06:00Z,28.1530,-82.8010,-9.655,1111122 
COMPS,ioos:station:USF.COMPS:FHP:1,2019-04-02T01:12:00Z,28.1530,-82.8010,-9.64,1111122 
COMPS,ioos:station:USF.COMPS:FHP:1,2019-04-02T01:18:00Z,28.1530,-82.8010,-9.636,1111122 
COMPS,ioos:station:USF.COMPS:FHP:1,2019-04-02T01:24:00Z,28.1530,-82.8010,-9.632,1111122 
COMPS,ioos:station:USF.COMPS:FHP:1,2019-04-02T01:30:00Z,28.1530,-82.8010,-9.621,1111122 
COMPS,ioos:station:USF.COMPS:FHP:1,2019-04-02T01:36:00Z,28.1530,-82.8010,-9.617,1111122 
COMPS,ioos:station:USF.COMPS:FHP:1,2019-04-02T01:42:00Z,28.1530,-82.8010,-9.609,1111122 
COMPS,ioos:station:USF.COMPS:FHP:1,2019-04-02T01:48:00Z,28.1530,-82.8010,-9.598,1111122 
COMPS,ioos:station:USF.COMPS:FHP:1,2019-04-02T01:54:00Z,28.1530,-82.8010,-9.588,1111122 
COMPS,ioos:station:USF.COMPS:FHP:1,2019-04-02T02:00:00Z,28.1530,-82.8010,-9.585,1111122 
COMPS,ioos:station:USF.COMPS:FHP:1,2019-04-02T02:06:00Z,28.1530,-82.8010,-9.586,1111122 
COMPS,ioos:station:USF.COMPS:FHP:1,2019-04-02T02:12:00Z,28.1530,-82.8010,-9.578,1111122 
COMPS,ioos:station:USF.COMPS:FHP:1,2019-04-02T02:18:00Z,28.1530,-82.8010,-9.585,1111122 
COMPS,ioos:station:USF.COMPS:FHP:1,2019-04-02T02:24:00Z,28.1530,-82.8010,-9.579,1111122 
COMPS,ioos:station:USF.COMPS:FHP:1,2019-04-02T02:30:00Z,28.1530,-82.8010,-9.567,1111122 
COMPS,ioos:station:USF.COMPS:FHP:1,2019-04-02T02:36:00Z,28.1530,-82.8010,-9.561,1111122 
COMPS,ioos:station:USF.COMPS:FHP:1,2019-04-02T02:42:00Z,28.1530,-82.8010,-9.556,1111122 
COMPS,ioos:station:USF.COMPS:FHP:1,2019-04-02T02:48:00Z,28.1530,-82.8010,-9.561,1111122 
COMPS,ioos:station:USF.COMPS:FHP:1,2019-04-02T02:54:00Z,28.1530,-82.8010,-9.562,1111122 
COMPS,ioos:station:USF.COMPS:FHP:1,2019-04-02T03:00:00Z,28.1530,-82.8010,-9.561,1111122 
COMPS,ioos:station:USF.COMPS:FHP:1,2019-04-02T03:06:00Z,28.1530,-82.8010,-9.561,1111122 
COMPS,ioos:station:USF.COMPS:FHP:1,2019-04-02T03:12:00Z,28.1530,-82.8010,-9.567,1111122 
COMPS,ioos:station:USF.COMPS:FHP:1,2019-04-02T03:18:00Z,28.1530,-82.8010,-9.569,1111122 
COMPS,ioos:station:USF.COMPS:FHP:1,2019-04-02T03:24:00Z,28.1530,-82.8010,-9.575,1111122 
COMPS,ioos:station:USF.COMPS:FHP:1,2019-04-02T03:30:00Z,28.1530,-82.8010,-9.564,1111122 
COMPS,ioos:station:USF.COMPS:FHP:1,2019-04-02T03:36:00Z,28.1530,-82.8010,-9.567,1111122 
COMPS,ioos:station:USF.COMPS:FHP:1,2019-04-02T03:42:00Z,28.1530,-82.8010,-9.567,1111122 
COMPS,ioos:station:USF.COMPS:FHP:1,2019-04-02T03:48:00Z,28.1530,-82.8010,-9.582,1111122 
COMPS,ioos:station:USF.COMPS:FHP:1,2019-04-02T03:54:00Z,28.1530,-82.8010,-9.584,1111122 
COMPS,ioos:station:USF.COMPS:FHP:1,2019-04-02T04:00:00Z,28.1530,-82.8010,-9.601,1111122 
COMPS,ioos:station:USF.COMPS:FHP:1,2019-04-02T04:06:00Z,28.1530,-82.8010,-9.606,1111122 
COMPS,ioos:station:USF.COMPS:FHP:1,2019-04-02T04:12:00Z,28.1530,-82.8010,-9.645,1111122 
COMPS,ioos:station:USF.COMPS:FHP:1,2019-04-02T04:18:00Z,28.1530,-82.8010,-9.643,1111122 
COMPS,ioos:station:USF.COMPS:FHP:1,2019-04-02T04:24:00Z,28.1530,-82.8010,-9.653,1111122 
COMPS,ioos:station:USF.COMPS:FHP:1,2019-04-02T04:30:00Z,28.1530,-82.8010,-9.661,1111122 
COMPS,ioos:station:USF.COMPS:FHP:1,2019-04-02T04:36:00Z,28.1530,-82.8010,-9.68,1111122 
COMPS,ioos:station:USF.COMPS:FHP:1,2019-04-02T04:42:00Z,28.1530,-82.8010,-9.692,1111122 
COMPS,ioos:station:USF.COMPS:FHP:1,2019-04-02T04:48:00Z,28.1530,-82.8010,-9.705,1111122 
COMPS,ioos:station:USF.COMPS:FHP:1,2019-04-02T04:54:00Z,28.1530,-82.8010,-9.705,1111122 
COMPS,ioos:station:USF.COMPS:FHP:1,2019-04-02T05:00:00Z,28.1530,-82.8010,-9.718,1111122 
COMPS,ioos:station:USF.COMPS:FHP:1,2019-04-02T05:06:00Z,28.1530,-82.8010,-9.706,1111122 
COMPS,ioos:station:USF.COMPS:FHP:1,2019-04-02T05:12:00Z,28.1530,-82.8010,-9.704,1111122 
COMPS,ioos:station:USF.COMPS:FHP:1,2019-04-02T05:18:00Z,28.1530,-82.8010,-9.719,1111122 
COMPS,ioos:station:USF.COMPS:FHP:1,2019-04-02T05:24:00Z,28.1530,-82.8010,-9.724,1111122 
COMPS,ioos:station:USF.COMPS:FHP:1,2019-04-02T05:30:00Z,28.1530,-82.8010,-9.738,1111122 
COMPS,ioos:station:USF.COMPS:FHP:1,2019-04-02T05:36:00Z,28.1530,-82.8010,-9.754,1111122 
COMPS,ioos:station:USF.COMPS:FHP:1,2019-04-02T05:42:00Z,28.1530,-82.8010,-9.773,1111122 
COMPS,ioos:station:USF.COMPS:FHP:1,2019-04-02T05:48:00Z,28.1530,-82.8010,-9.785,1111122 
COMPS,ioos:station:USF.COMPS:FHP:1,2019-04-02T05:54:00Z,28.1530,-82.8010,-9.81,1111122 
COMPS,ioos:station:USF.COMPS:FHP:1,2019-04-02T06:00:00Z,28.1530,-82.8010,-9.817,1111122 
COMPS,ioos:station:USF.COMPS:FHP:1,2019-04-02T06:06:00Z,28.1530,-82.8010,-9.838,1111122 
COMPS,ioos:station:USF.COMPS:FHP:1,2019-04-02T06:12:00Z,28.1530,-82.8010,-9.854,1111122 
COMPS,ioos:station:USF.COMPS:FHP:1,2019-04-02T06:18:00Z,28.1530,-82.8010,-9.873,1111122 
COMPS,ioos:station:USF.COMPS:FHP:1,2019-04-02T06:24:00Z,28.1530,-82.8010,-9.894,1111122 
COMPS,ioos:station:USF.COMPS:FHP:1,2019-04-02T06:30:00Z,28.1530,-82.8010,-9.908,1111122 
COMPS,ioos:station:USF.COMPS:FHP:1,2019-04-02T06:36:00Z,28.1530,-82.8010,-9.919,1111122 
COMPS,ioos:station:USF.COMPS:FHP:1,2019-04-02T06:42:00Z,28.1530,-82.8010,-9.943,1111122 
COMPS,ioos:station:USF.COMPS:FHP:1,2019-04-02T06:48:00Z,28.1530,-82.8010,-9.969,1111122 
COMPS,ioos:station:USF.COMPS:FHP:1,2019-04-02T06:54:00Z,28.1530,-82.8010,-9.978,1111122 
COMPS,ioos:station:USF.COMPS:FHP:1,2019-04-02T12:18:00Z,28.1530,-82.8010,-9.987,1111122 
COMPS,ioos:station:USF.COMPS:FHP:1,2019-04-02T12:24:00Z,28.1530,-82.8010,-9.963,1111122 
COMPS,ioos:station:USF.COMPS:FHP:1,2019-04-02T12:30:00Z,28.1530,-82.8010,-9.961,1111122 
COMPS,ioos:station:USF.COMPS:FHP:1,2019-04-02T12:36:00Z,28.1530,-82.8010,-9.928,1111122 
COMPS,ioos:station:USF.COMPS:FHP:1,2019-04-02T12:42:00Z,28.1530,-82.8010,-9.924,1111122 
COMPS,ioos:station:USF.COMPS:FHP:1,2019-04-02T12:48:00Z,28.1530,-82.8010,-9.89,1111122 
COMPS,ioos:station:USF.COMPS:FHP:1,2019-04-02T12:54:00Z,28.1530,-82.8010,-9.884,1111122 
COMPS,ioos:station:USF.COMPS:FHP:1,2019-04-02T13:00:00Z,28.1530,-82.8010,-9.861,1111122 
COMPS,ioos:station:USF.COMPS:FHP:1,2019-04-02T13:06:00Z,28.1530,-82.8010,-9.84,1111122 
COMPS,ioos:station:USF.COMPS:FHP:1,2019-04-02T13:12:00Z,28.1530,-82.8010,-9.822,1111122 
COMPS,ioos:station:USF.COMPS:FHP:1,2019-04-02T13:18:00Z,28.1530,-82.8010,-9.789,1111122 
COMPS,ioos:station:USF.COMPS:FHP:1,2019-04-02T13:24:00Z,28.1530,-82.8010,-9.787,1111122 
COMPS,ioos:station:USF.COMPS:FHP:1,2019-04-02T13:30:00Z,28.1530,-82.8010,-9.778,1111122 
COMPS,ioos:station:USF.COMPS:FHP:1,2019-04-02T13:36:00Z,28.1530,-82.8010,-9.753,1111122 
COMPS,ioos:station:USF.COMPS:FHP:1,2019-04-02T13:42:00Z,28.1530,-82.8010,-9.728,1111122 
COMPS,ioos:station:USF.COMPS:FHP:1,2019-04-02T13:48:00Z,28.1530,-82.8010,-9.713,1111122 
COMPS,ioos:station:USF.COMPS:FHP:1,2019-04-02T13:54:00Z,28.1530,-82.8010,-9.698,1111122 
COMPS,ioos:station:USF.COMPS:FHP:1,2019-04-02T14:00:00Z,28.1530,-82.8010,-9.692,1111122 
COMPS,ioos:station:USF.COMPS:FHP:1,2019-04-02T14:06:00Z,28.1530,-82.8010,-9.676,1111122 
COMPS,ioos:station:USF.COMPS:FHP:1,2019-04-02T14:12:00Z,28.1530,-82.8010,-9.689,1111122 
COMPS,ioos:station:USF.COMPS:FHP:1,2019-04-02T14:18:00Z,28.1530,-82.8010,-9.673,1111122 
COMPS,ioos:station:USF.COMPS:FHP:1,2019-04-02T14:24:00Z,28.1530,-82.8010,-9.714,1111122 
COMPS,ioos:station:USF.COMPS:FHP:1,2019-04-02T14:30:00Z,28.1530,-82.8010,-9.678,1111122 
COMPS,ioos:station:USF.COMPS:FHP:1,2019-04-02T14:36:00Z,28.1530,-82.8010,-9.66,1111122 
COMPS,ioos:station:USF.COMPS:FHP:1,2019-04-02T14:42:00Z,28.1530,-82.8010,-9.667,1111122 
COMPS,ioos:station:USF.COMPS:FHP:1,2019-04-02T14:48:00Z,28.1530,-82.8010,-9.663,1111122 
COMPS,ioos:station:USF.COMPS:FHP:1,2019-04-02T14:54:00Z,28.1530,-82.8010,-9.674,1111122 
COMPS,ioos:station:USF.COMPS:FHP:1,2019-04-02T15:00:00Z,28.1530,-82.8010,-9.653,1111122 
COMPS,ioos:station:USF.COMPS:FHP:1,2019-04-02T15:06:00Z,28.1530,-82.8010,-9.667,1111122 
COMPS,ioos:station:USF.COMPS:FHP:1,2019-04-02T15:12:00Z,28.1530,-82.8010,-9.691,1111122 
COMPS,ioos:station:USF.COMPS:FHP:1,2019-04-02T15:18:00Z,28.1530,-82.8010,-9.697,1111122 
COMPS,ioos:station:USF.COMPS:FHP:1,2019-04-02T15:24:00Z,28.1530,-82.8010,-9.701,1111122 
COMPS,ioos:station:USF.COMPS:FHP:1,2019-04-02T15:30:00Z,28.1530,-82.8010,-9.7,1111122 
COMPS,ioos:station:USF.COMPS:FHP:1,2019-04-02T15:36:00Z,28.1530,-82.8010,-9.709,1111122 
COMPS,ioos:station:USF.COMPS:FHP:1,2019-04-02T15:42:00Z,28.1530,-82.8010,-9.724,1111122 
COMPS,ioos:station:USF.COMPS:FHP:1,2019-04-02T15:48:00Z,28.1530,-82.8010,-9.734,1111122 
COMPS,ioos:station:USF.COMPS:FHP:1,2019-04-02T15:54:00Z,28.1530,-82.8010,-9.729,1111122 
COMPS,ioos:station:USF.COMPS:FHP:1,2019-04-02T16:00:00Z,28.1530,-82.8010,-9.746,1111122 
COMPS,ioos:station:USF.COMPS:FHP:1,2019-04-02T16:06:00Z,28.1530,-82.8010,-9.742,1111122 
COMPS,ioos:station:USF.COMPS:FHP:1,2019-04-02T16:12:00Z,28.1530,-82.8010,-9.735,1111122 
COMPS,ioos:station:USF.COMPS:FHP:1,2019-04-02T16:18:00Z,28.1530,-82.8010,-9.741,1111122 
COMPS,ioos:station:USF.COMPS:FHP:1,2019-04-02T16:24:00Z,28.1530,-82.8010,-9.723,1111122 
COMPS,ioos:station:USF.COMPS:FHP:1,2019-04-02T16:30:00Z,28.1530,-82.8010,-9.738,1111122 
COMPS,ioos:station:USF.COMPS:FHP:1,2019-04-02T16:36:00Z,28.1530,-82.8010,-9.727,1111122 
COMPS,ioos:station:USF.COMPS:FHP:1,2019-04-02T16:42:00Z,28.1530,-82.8010,-9.717,1111122 
COMPS,ioos:station:USF.COMPS:FHP:1,2019-04-02T16:48:00Z,28.1530,-82.8010,-9.707,1111122 
COMPS,ioos:station:USF.COMPS:FHP:1,2019-04-02T16:54:00Z,28.1530,-82.8010,-9.694,1111122 
COMPS,ioos:station:USF.COMPS:FHP:1,2019-04-02T17:00:00Z,28.1530,-82.8010,-9.694,1111122 
COMPS,ioos:station:USF.COMPS:FHP:1,2019-04-02T17:06:00Z,28.1530,-82.8010,-9.687,1111122 
COMPS,ioos:station:USF.COMPS:FHP:1,2019-04-02T17:12:00Z,28.1530,-82.8010,-9.701,1111122 
COMPS,ioos:station:USF.COMPS:FHP:1,2019-04-02T17:18:00Z,28.1530,-82.8010,-9.693,1111122 
COMPS,ioos:station:USF.COMPS:FHP:1,2019-04-02T17:24:00Z,28.1530,-82.8010,-9.711,1111122 
COMPS,ioos:station:USF.COMPS:FHP:1,2019-04-02T17:30:00Z,28.1530,-82.8010,-9.699,1111122 
COMPS,ioos:station:USF.COMPS:FHP:1,2019-04-02T17:36:00Z,28.1530,-82.8010,-9.718,1111122 
COMPS,ioos:station:USF.COMPS:FHP:1,2019-04-02T17:42:00Z,28.1530,-82.8010,-9.727,1111122 
COMPS,ioos:station:USF.COMPS:FHP:1,2019-04-02T17:48:00Z,28.1530,-82.8010,-9.739,1111122 